Vertical_Velocity
-2 -0 -0 -0 0 -1 -0 -2 6 0 -0 -0 -1 -1 0 -1 -0 -0 -0 -2 -1 -0 0 0 0 1 0 -0 0 1 1 0 0 1 0 -0 0 1 1 1 1 1 1
-0 0 1 -0 1 0 1 -2 -1 0 -1 1 1 -1 -0 -0 -1 6 0 -1 -2 -2 -1 -0 0 0 -0 -0 -0 -0 0 1 0 0 1 1 1 0 -0 -0 -0 0 1
1 0 1 -1 1 1 0 -1 0 1 -1 -1 0 3 3 1 0 -1 -0 0 1 2 1 2 2 -1 -1 -1 -0 -1 -1 -1 -1 0 1 -1 -1 -0 -1 -1 -0 -0 -0
0 1 0 -0 0 1 0 0 -1 1 -0 -0 1 -1 -1 -0 -0 0 -1 -1 -2 -1 -1 -1 -1 -2 -2 -0 3 7 5 3 2 -3 -2 0 -0 0 -0 -1 -2 -2 -2
-0 0 0 0 -0 1 1 0 1 0 -1 -0 0 0 -1 -1 -1 -1 -1 -1 -1 -1 -1 -1 -0 -1 -1 -1 -2 -2 -2 -0 0 1 -2 -3 -1 -1 -2 -1 3 -1 -3
0 -1 -1 -1 1 2 2 0 -1 1 -0 -0 1 0 -0 -0 -1 -1 -1 -1 -0 -0 -1 -1 -0 -0 -1 -0 -0 -1 -2 -2 -3 -2 1 -0 -3 -1 -2 -2 4 9 -0
-1 1 -3 7 6 1 -0 -0 -1 1 -1 -1 0 -0 -0 0 -0 -0 -0 0 -0 -0 -1 -0 -1 -1 -1 -1 -0 -0 0 -1 -1 0 -0 0 1 -2 -2 -1 -1 2 10
1 -1 -1 -1 -1 -0 -0 -1 -2 0 -1 -1 -0 -0 -0 -0 -1 -0 -1 -1 -0 -1 -2 -1 -1 -0 -1 -1 -1 -1 -1 -1 -0 -0 0 -1 0 -1 -0 -2 -1 -0 5
3 1 -1 1 -1 -2 -1 -2 -1 -1 -1 -1 -1 -1 -1 -1 -2 -0 -0 -1 -1 -0 -1 -1 -1 -0 -0 -1 -1 -1 0 -0 -1 -2 -1 0 0 0 1 0 -0 1 -1
2 2 2 -0 -2 -1 -0 -1 -0 -1 -2 0 1 -1 -1 -0 -2 -2 -1 -0 -1 -2 -1 -0 -1 0 -1 -0 -1 -1 -0 -1 -1 -0 0 0 -0 1 1 -0 1 1 -0
1 1 1 1 1 -1 -2 -1 1 -1 -1 -2 0 -0 -1 -1 -0 -1 -1 -1 -1 -1 -2 -1 -1 -0 -2 -1 -1 -1 -1 -1 -0 -0 0 -0 -0 0 1 -3 3 1 -1
-1 -1 -2 -0 -0 1 -1 -1 2 -1 -0 -1 -0 -0 -1 -2 -0 -2 -2 -1 -3 -0 -2 -1 -1 -1 -2 -1 -1 -0 -1 -1 -1 -0 1 0 0 0 1 0 -0 1 -1
1 -1 -1 -2 1 -1 -1 1 1 1 1 0 -2 1 -1 -2 -1 0 -2 -2 -1 -0 0 -0 1 -1 -3 -2 -1 -1 -1 -1 -1 -0 -0 -1 -1 2 3 2 -0 -1 0
-2 0 0 -1 -0 -1 -0 -0 1 2 -1 1 -2 0 -2 -0 -0 -1 -1 -1 -2 -1 -0 -0 -0 -1 -0 -0 -2 -1 -2 -1 -1 -1 -0 -0 -1 0 0 1 3 3 -0
0 -1 -0 -1 -1 -2 1 -0 1 0 0 0 -2 -2 -1 -1 -0 -2 -1 -4 -2 -2 -1 -1 -1 -1 -1 1 -0 -2 -1 -0 0 -1 -1 -1 -0 -1 -1 -0 1 2 4
1 1 -0 -1 -1 -1 1 1 1 -1 -0 1 -2 -2 -1 -2 -1 -1 -1 -2 -1 -2 -2 -1 -2 -2 -2 -3 -3 -2 -1 -1 -1 -1 -0 -1 -1 -1 -1 -1 -0 2 -2
2 2 1 0 -0 0 2 0 1 0 -1 0 -1 -1 -2 -1 -2 -1 -1 -1 -3 -1 -1 -0 0 -0 0 -1 -3 -1 1 1 0 -0 -0 -1 1 0 -1 -2 -4 -3 -1
1 -1 1 1 1 1 1 1 1 0 -1 -0 1 -2 -1 -2 -0 -0 -2 -3 -2 -2 -2 -1 -2 -1 -1 -3 -2 -2 -1 -0 -1 -0 -1 -1 -1 -1 0 1 1 -0 5
2 1 -1 1 2 1 1 0 -0 -1 -0 -0 0 -1 -1 -1 -0 -2 -2 -2 -2 -2 -2 -2 -2 -2 -1 -1 -1 -1 -0 1 1 0 1 0 1 -0 -2 -0 0 -0 1
3 2 1 2 1 1 1 -0 -1 0 1 -1 -0 0 2 -2 -1 -2 -2 -1 0 -0 -1 -1 -1 -1 -2 -2 -1 -0 0 0 0 0 1 0 -2 -1 0 -0 -2 0 -1
1 0 1 2 1 1 -0 -1 -1 0 0 -0 1 2 -0 -1 -1 -1 -1 0 -0 -2 -1 -2 -0 -0 -3 -2 -1 -0 0 -1 0 -0 -1 -0 -2 -2 1 -0 -2 -1 -1
2 1 -0 0 -0 1 -0 -1 -0 -0 1 2 1 1 -1 -2 -0 0 0 -0 -0 -0 -0 -1 -2 -2 -2 -2 -2 -2 -3 -1 3 2 0 0 -1 0 1 -1 -1 -2 -3
-1 0 1 1 1 -1 -1 -1 -1 0 0 1 1 -1 -2 1 1 -1 -1 -1 -1 -0 -1 -2 -1 -2 -2 -1 -1 -1 -2 -3 -5 1 -0 3 -0 0 -1 1 -0 1 -4
1 1 0 -0 -1 -1 -1 -1 -0 0 0 -0 -0 -1 1 -1 -2 -2 -0 -0 0 -0 -1 -1 -1 -2 -2 -2 -1 -1 -1 -1 -1 -5 -1 3 1 -0 -1 -2 3 2 1
1 1 -0 -1 -2 -1 0 0 -0 -0 -1 -1 -0 0 0 -1 -3 -1 -1 -0 0 -1 -0 0 0 -1 -2 -0 -1 -0 -2 1 -2 -3 -5 -5 3 1 -2 -1 0 0 1
-1 -1 -2 -1 1 1 0 -1 -1 -2 -1 -0 -0 0 -0 1 1 -1 0 0 0 -0 0 -0 -1 -0 -1 -1 -2 -1 -2 0 1 -3 -2 -4 -3 0 -2 -1 1 -2 1
Height
1548 1551 1553 1555 1557 1557 1558 1559 1560 1561 1561 1561 1561 1561 1561 1561 1560 1560 1559 1559 1558 1557 1556 1555 1554 1554 1553 1552 1551 1550 1549 1548 1547 1547 1546 1545 1545 1544 1544 1543 1543 1542 1541
1548 1551 1553 1556 1558 1558 1559 1560 1562 1562 1562 1562 1562 1562 1562 1562 1561 1561 1560 1559 1559 1558 1557 1556 1555 1554 1553 1552 1552 1551 1550 1549 1547 1546 1546 1545 1544 1544 1544 1543 1542 1542 1541
1549 1551 1553 1556 1558 1559 1560 1561 1562 1563 1563 1563 1563 1563 1563 1562 1561 1561 1560 1559 1558 1557 1556 1555 1554 1553 1552 1552 1551 1550 1550 1549 1548 1547 1546 1545 1545 1544 1543 1543 1542 1542 1541
1550 1552 1554 1557 1559 1560 1561 1563 1564 1564 1564 1564 1564 1563 1563 1562 1561 1561 1560 1558 1557 1556 1555 1554 1553 1552 1551 1550 1549 1549 1548 1548 1547 1546 1545 1544 1544 1543 1543 1542 1542 1541 1541
1551 1553 1555 1558 1560 1561 1562 1564 1564 1564 1564 1564 1564 1563 1562 1562 1561 1560 1559 1558 1556 1555 1554 1553 1552 1551 1550 1549 1548 1547 1546 1545 1544 1544 1543 1543 1542 1542 1542 1541 1541 1540 1540
1551 1554 1556 1559 1561 1562 1563 1564 1565 1565 1564 1565 1564 1563 1562 1561 1560 1559 1557 1556 1555 1554 1553 1552 1550 1549 1548 1547 1545 1545 1544 1543 1542 1541 1541 1541 1540 1540 1540 1540 1539 1539 1539
1552 1555 1557 1560 1561 1562 1564 1565 1565 1565 1565 1565 1564 1563 1562 1560 1559 1558 1557 1555 1554 1553 1551 1550 1549 1547 1546 1544 1543 1542 1541 1539 1538 1538 1538 1538 1537 1537 1537 1537 1537 1536 1537
1553 1555 1558 1560 1562 1563 1564 1565 1566 1565 1565 1564 1564 1562 1561 1560 1558 1557 1556 1554 1553 1552 1550 1548 1547 1545 1543 1542 1540 1538 1537 1535 1535 1534 1533 1533 1533 1533 1533 1534 1533 1533 1533
1554 1557 1559 1561 1562 1564 1565 1565 1566 1565 1565 1564 1563 1562 1561 1560 1558 1556 1555 1553 1552 1550 1548 1546 1544 1542 1540 1538 1536 1535 1533 1532 1531 1530 1529 1529 1529 1529 1530 1530 1530 1530 1529
1555 1557 1559 1561 1562 1564 1565 1565 1566 1565 1565 1564 1563 1561 1560 1558 1557 1555 1554 1552 1550 1548 1546 1544 1542 1540 1537 1535 1533 1531 1529 1528 1527 1526 1526 1525 1526 1527 1527 1526 1525 1526 1525
1555 1557 1559 1561 1562 1563 1564 1565 1566 1565 1565 1564 1562 1561 1560 1558 1556 1554 1552 1550 1548 1546 1544 1542 1539 1537 1534 1532 1529 1527 1525 1524 1523 1522 1522 1522 1523 1524 1524 1523 1523 1522 1523
1555 1557 1560 1562 1562 1563 1564 1565 1565 1564 1564 1564 1562 1560 1559 1557 1555 1554 1551 1550 1547 1545 1543 1540 1537 1534 1532 1530 1527 1525 1523 1521 1520 1519 1519 1519 1519 1520 1521 1520 1520 1520 1520
1555 1557 1560 1561 1562 1563 1564 1564 1565 1564 1564 1563 1562 1560 1559 1557 1555 1553 1551 1549 1546 1544 1541 1539 1536 1533 1531 1528 1526 1523 1521 1519 1517 1517 1516 1516 1516 1516 1516 1516 1517 1517 1517
1554 1557 1559 1561 1562 1563 1563 1564 1564 1563 1563 1561 1561 1560 1558 1557 1554 1552 1549 1547 1544 1542 1540 1537 1534 1532 1529 1527 1524 1522 1519 1518 1516 1515 1515 1514 1513 1513 1513 1513 1514 1514 1514
1552 1555 1558 1560 1561 1562 1563 1563 1563 1562 1562 1560 1560 1559 1557 1556 1554 1551 1549 1546 1543 1541 1538 1536 1533 1530 1528 1526 1523 1521 1519 1517 1516 1514 1514 1513 1512 1511 1511 1511 1512 1512 1512
1552 1554 1556 1558 1560 1561 1562 1562 1562 1562 1561 1560 1559 1558 1556 1554 1552 1550 1548 1545 1543 1540 1537 1535 1532 1529 1527 1524 1521 1520 1518 1517 1515 1514 1514 1513 1512 1510 1510 1510 1511 1510 1510
1550 1553 1555 1557 1559 1560 1561 1561 1561 1561 1560 1559 1558 1557 1555 1554 1552 1550 1547 1545 1542 1539 1537 1534 1531 1529 1526 1523 1520 1518 1517 1517 1516 1515 1515 1514 1513 1511 1510 1509 1509 1509 1509
1549 1551 1554 1556 1557 1559 1559 1560 1560 1560 1559 1558 1557 1556 1554 1553 1551 1549 1547 1544 1542 1539 1536 1533 1530 1528 1525 1523 1520 1518 1517 1517 1517 1516 1516 1515 1514 1512 1511 1510 1510 1509 1509
1548 1550 1552 1554 1556 1556 1557 1558 1558 1559 1558 1557 1556 1554 1553 1552 1550 1548 1546 1543 1541 1538 1535 1532 1530 1527 1524 1522 1521 1520 1519 1519 1519 1518 1517 1516 1515 1514 1513 1512 1511 1511 1510
1546 1548 1550 1552 1553 1554 1555 1556 1557 1557 1556 1555 1554 1553 1552 1550 1549 1547 1544 1542 1540 1537 1535 1532 1529 1526 1523 1522 1521 1521 1521 1520 1520 1519 1518 1516 1515 1515 1514 1512 1512 1511 1510
1543 1546 1548 1549 1551 1552 1553 1554 1555 1555 1554 1553 1552 1551 1550 1549 1547 1545 1543 1541 1538 1536 1534 1531 1528 1526 1524 1522 1521 1521 1520 1520 1520 1519 1518 1517 1516 1515 1514 1513 1513 1512 1510
1541 1543 1544 1546 1548 1549 1551 1551 1552 1552 1552 1551 1550 1549 1548 1547 1545 1543 1541 1539 1537 1535 1533 1531 1528 1526 1524 1521 1521 1519 1519 1520 1520 1518 1518 1517 1516 1515 1514 1513 1512 1511 1510
1537 1539 1541 1543 1545 1546 1547 1548 1549 1549 1549 1549 1548 1548 1547 1545 1543 1541 1539 1537 1535 1534 1532 1530 1528 1526 1524 1523 1521 1521 1519 1519 1517 1517 1516 1516 1514 1514 1513 1513 1512 1511 1510
1533 1536 1538 1540 1542 1543 1544 1545 1546 1546 1546 1546 1546 1546 1544 1542 1540 1538 1537 1535 1534 1532 1531 1529 1527 1526 1524 1523 1522 1521 1520 1520 1518 1516 1515 1515 1513 1512 1512 1512 1511 1510 1509
1530 1533 1535 1537 1538 1540 1541 1542 1543 1543 1544 1544 1543 1543 1541 1540 1538 1536 1535 1533 1532 1531 1530 1528 1527 1525 1524 1523 1521 1521 1519 1519 1518 1519 1515 1513 1512 1511 1510 1510 1510 1508 1507
1527 1530 1532 1534 1535 1536 1537 1539 1540 1540 1541 1541 1540 1540 1539 1537 1536 1534 1532 1531 1530 1529 1528 1526 1525 1524 1523 1522 1521 1521 1519 1519 1517 1516 1516 1513 1511 1509 1509 1509 1507 1506 1506